Time,TemperatureF,DewpointF,PressureIn,WindDirection,WindDirectionDegrees,WindSpeedMPH,WindSpeedGustMPH,Humidity,HourlyPrecipIn,Conditions,Clouds,dailyrainin,SoftwareType,DateUTC
2013-03-23 00:00:00,42.3,23.3,29.93,SW,218,0.0,0.0,47,0.00,,CLR,0.00,VWS V14.00,2013-03-23 04:00:00,
2013-03-23 00:01:00,43.3,24.2,29.94,WNW,297,0.0,9.9,46,0.00,,SCT120,0.00,VWS V14.00,2013-03-23 04:01:00,
2013-03-23 00:02:00,43.3,24.1,29.94,NW,314,7.0,9.9,46,0.00,,SCT120,0.00,VWS V14.00,2013-03-23 04:02:00,
2013-03-23 00:03:00,43.5,24.3,29.94,NNW,346,0.0,9.9,46,0.00,,SCT120,0.00,VWS V14.00,2013-03-23 04:03:00,
2013-03-23 00:04:00,43.5,24.4,29.94,NNW,346,0.0,9.9,46,0.00,,SCT120,0.00,VWS V14.00,2013-03-23 04:04:00,
2013-03-23 00:05:00,42.5,23.6,29.93,SW,218,0.0,0.0,47,0.00,,CLR,0.00,VWS V14.00,2013-03-23 04:05:00,
2013-03-23 00:06:00,43.2,24.1,29.94,WNW,301,0.0,9.9,46,0.00,,SCT120,0.00,VWS V14.00,2013-03-23 04:06:00,
2013-03-23 00:10:00,42.5,23.7,29.93,SW,218,0.0,0.0,47,0.00,,CLR,0.00,VWS V14.00,2013-03-23 04:10:00,
2013-03-23 00:15:00,42.4,23.8,29.93,SW,218,0.0,0.0,47,0.00,,CLR,0.00,VWS V14.00,2013-03-23 04:15:00,
2013-03-23 00:20:00,42.3,23.9,29.93,SW,218,0.0,0.0,48,0.00,,CLR,0.00,VWS V14.00,2013-03-23 04:20:00,
2013-03-23 00:25:00,42.3,24.0,29.93,West,259,0.0,6.2,48,0.00,,CLR,0.00,VWS V14.00,2013-03-23 04:25:00,
2013-03-23 00:30:00,42.5,24.3,29.93,SW,219,0.0,6.2,48,0.00,,CLR,0.00,VWS V14.00,2013-03-23 04:30:00,
2013-03-23 00:35:00,42.6,24.4,29.93,SSW,195,0.0,5.7,48,0.00,,CLR,0.00,VWS V14.00,2013-03-23 04:35:00,
2013-03-23 00:40:00,42.9,24.6,29.93,SSW,205,0.0,7.9,48,0.00,,CLR,0.00,VWS V14.00,2013-03-23 04:40:00,
2013-03-23 00:45:00,43.4,25.0,29.93,WNW,287,3.4,7.9,48,0.00,,CLR,0.00,VWS V14.00,2013-03-23 04:45:00,
2013-03-23 00:50:00,43.7,25.0,29.93,NW,307,9.9,9.9,47,0.00,,SCT120,0.00,VWS V14.00,2013-03-23 04:50:00,
2013-03-23 00:55:00,43.4,24.5,29.93,WNW,294,0.0,9.9,47,0.00,,SCT120,0.00,VWS V14.00,2013-03-23 04:55:00,
2013-03-23 01:00:00,43.2,24.1,29.93,WNW,297,0.0,9.9,47,0.00,,SCT120,0.00,VWS V14.00,2013-03-23 05:00:00,
2013-03-23 01:05:00,43.3,24.2,29.93,NNW,346,0.0,9.9,46,0.00,,SCT120,0.00,VWS V14.00,2013-03-23 05:05:00,
2013-03-23 01:10:00,43.3,24.1,29.93,WNW,287,0.0,9.9,46,0.00,,SCT120,0.00,VWS V14.00,2013-03-23 05:10:00,
2013-03-23 01:15:00,43.2,24.2,29.93,WSW,238,0.0,9.9,47,0.00,,SCT120,0.00,VWS V14.00,2013-03-23 05:15:00,
2013-03-23 01:20:00,43.1,24.2,29.93,WSW,238,0.0,9.9,47,0.00,,SCT120,0.00,VWS V14.00,2013-03-23 05:20:00,
2013-03-23 01:25:00,43.0,24.2,29.93,WSW,238,2.7,9.9,47,0.00,,SCT120,0.00,VWS V14.00,2013-03-23 05:25:00,
2013-03-23 01:30:00,43.1,24.5,29.93,NW,305,0.0,9.9,47,0.00,,SCT120,0.00,VWS V14.00,2013-03-23 05:30:00,
2013-03-23 01:35:00,42.8,24.3,29.93,NW,305,0.0,9.9,48,0.00,,SCT120,0.00,VWS V14.00,2013-03-23 05:35:00,
2013-03-23 01:40:00,42.6,24.2,29.93,NW,305,0.0,9.9,48,0.00,,SCT120,0.00,VWS V14.00,2013-03-23 05:40:00,
2013-03-23 01:45:00,42.3,24.1,29.93,NW,305,0.0,9.9,48,0.00,,BKN110,0.00,VWS V14.00,2013-03-23 05:45:00,
2013-03-23 01:50:00,42.4,24.3,29.93,NW,305,0.0,9.9,48,0.00,,BKN110,0.00,VWS V14.00,2013-03-23 05:50:00,
2013-03-23 01:55:00,41.8,24.0,29.93,NW,305,0.0,9.9,49,0.00,,BKN110,0.00,VWS V14.00,2013-03-23 05:55:00,
2013-03-23 02:00:00,42.0,24.3,29.93,NW,305,0.0,9.9,49,0.00,,BKN110,0.00,VWS V14.00,2013-03-23 06:00:00,
2013-03-23 02:05:00,41.6,24.1,29.93,NW,305,0.0,9.9,50,0.00,,BKN110,0.00,VWS V14.00,2013-03-23 06:05:00,
2013-03-23 02:10:00,41.4,24.1,29.93,NW,305,0.0,9.9,50,0.00,,BKN110,0.00,VWS V14.00,2013-03-23 06:10:00,
2013-03-23 02:15:00,41.4,24.2,29.93,NW,305,0.0,9.9,50,0.00,,BKN110,0.00,VWS V14.00,2013-03-23 06:15:00,
2013-03-23 02:20:00,41.0,24.0,29.93,NW,305,0.0,9.9,50,0.00,,BKN110,0.00,VWS V14.00,2013-03-23 06:20:00,
2013-03-23 02:25:00,41.1,24.2,29.93,NW,305,0.0,9.9,51,0.00,,BKN110,0.00,VWS V14.00,2013-03-23 06:25:00,
2013-03-23 02:30:00,41.2,24.5,29.93,NW,305,0.0,9.9,51,0.00,,BKN110,0.00,VWS V14.00,2013-03-23 06:30:00,
2013-03-23 02:35:00,40.8,24.5,29.93,NW,305,0.0,9.9,52,0.00,,BKN110,0.00,VWS V14.00,2013-03-23 06:35:00,
2013-03-23 02:40:00,41.1,24.9,29.93,NW,305,0.0,9.9,52,0.00,,BKN110,0.00,VWS V14.00,2013-03-23 06:40:00,
2013-03-23 02:45:00,41.0,25.1,29.92,NW,305,0.0,9.9,53,0.00,,OVC110,0.00,VWS V14.00,2013-03-23 06:45:00,
2013-03-23 02:50:00,41.2,25.3,29.92,NW,305,0.0,9.9,53,0.00,,OVC110,0.00,VWS V14.00,2013-03-23 06:50:00,
2013-03-23 02:55:00,41.0,25.5,29.92,NW,305,0.0,9.9,54,0.00,,OVC110,0.00,VWS V14.00,2013-03-23 06:55:00,
2013-03-23 03:00:00,41.0,25.7,29.93,NW,305,0.0,9.9,54,0.00,,OVC110,0.00,VWS V14.00,2013-03-23 07:00:00,
2013-03-23 03:05:00,41.0,26.0,29.93,NW,305,0.0,9.9,55,0.00,,OVC110,0.00,VWS V14.00,2013-03-23 07:05:00,
2013-03-23 03:10:00,40.7,25.7,29.93,NW,305,0.0,9.9,55,0.00,,OVC110,0.00,VWS V14.00,2013-03-23 07:10:00,
2013-03-23 03:15:00,40.8,25.5,29.92,NW,305,0.0,9.9,54,0.00,,OVC110,0.00,VWS V14.00,2013-03-23 07:15:00,
2013-03-23 03:20:00,40.9,25.7,29.92,NW,305,0.0,9.9,54,0.00,,OVC110,0.00,VWS V14.00,2013-03-23 07:20:00,
2013-03-23 03:25:00,41.1,26.4,29.92,NW,305,0.0,9.9,56,0.00,,OVC110,0.00,VWS V14.00,2013-03-23 07:25:00,
2013-03-23 03:30:00,41.0,26.2,29.92,NW,305,0.0,9.9,55,0.00,,OVC110,0.00,VWS V14.00,2013-03-23 07:30:00,
2013-03-23 03:35:00,41.0,26.6,29.92,NW,305,0.0,9.9,56,0.00,,OVC110,0.00,VWS V14.00,2013-03-23 07:35:00,
2013-03-23 03:40:00,41.0,27.3,29.92,NW,305,0.0,9.9,58,0.00,,OVC110,0.00,VWS V14.00,2013-03-23 07:40:00,
2013-03-23 03:45:00,40.7,26.5,29.92,NW,305,0.0,9.9,57,0.00,,OVC110,0.00,VWS V14.00,2013-03-23 07:45:00,
2013-03-23 03:50:00,40.6,27.0,29.92,NW,305,0.0,9.9,58,0.00,,OVC100,0.00,VWS V14.00,2013-03-23 07:50:00,
2013-03-23 03:55:00,40.6,26.4,29.92,NW,305,0.0,9.9,57,0.00,,OVC100,0.00,VWS V14.00,2013-03-23 07:55:00,
2013-03-23 04:00:00,40.7,26.6,29.92,NW,305,0.0,9.9,57,0.00,,OVC100,0.00,VWS V14.00,2013-03-23 08:00:00,
2013-03-23 04:05:00,40.5,26.2,29.92,NW,305,0.0,9.9,56,0.00,,OVC100,0.00,VWS V14.00,2013-03-23 08:05:00,
2013-03-23 04:10:00,40.4,26.0,29.92,NW,305,0.0,9.9,56,0.00,,OVC100,0.00,VWS V14.00,2013-03-23 08:10:00,
2013-03-23 04:15:00,40.7,26.4,29.92,NW,305,0.0,9.9,56,0.00,,OVC100,0.00,VWS V14.00,2013-03-23 08:15:00,
2013-03-23 04:20:00,40.5,26.3,29.92,NW,305,0.0,9.9,57,0.00,,OVC100,0.00,VWS V14.00,2013-03-23 08:20:00,
2013-03-23 04:25:00,40.6,26.8,29.92,NW,305,0.0,9.9,58,0.00,,OVC100,0.00,VWS V14.00,2013-03-23 08:25:00,
2013-03-23 04:30:00,40.3,27.0,29.92,NW,305,0.0,9.9,59,0.00,,OVC100,0.00,VWS V14.00,2013-03-23 08:30:00,
2013-03-23 04:35:00,40.6,27.6,29.92,NW,305,0.0,9.9,60,0.00,,OVC100,0.00,VWS V14.00,2013-03-23 08:35:00,
2013-03-23 04:40:00,40.4,27.5,29.92,NW,305,0.0,9.9,60,0.00,,OVC100,0.00,VWS V14.00,2013-03-23 08:40:00,
2013-03-23 04:45:00,40.6,27.6,29.92,NW,305,0.0,9.9,60,0.00,,OVC075,0.00,VWS V14.00,2013-03-23 08:45:00,
2013-03-23 04:50:00,40.4,27.5,29.92,NW,305,0.0,9.9,60,0.00,,OVC075,0.00,VWS V14.00,2013-03-23 08:50:00,
2013-03-23 04:55:00,40.2,27.0,29.92,NW,305,0.0,9.9,59,0.00,,OVC075,0.00,VWS V14.00,2013-03-23 08:55:00,
2013-03-23 05:00:00,40.3,27.0,29.93,NW,305,0.0,9.9,59,0.00,,OVC075,0.00,VWS V14.00,2013-03-23 09:00:00,
2013-03-23 05:05:00,40.1,26.2,29.92,NW,305,0.0,9.9,57,0.00,,OVC075,0.00,VWS V14.00,2013-03-23 09:05:00,
2013-03-23 05:10:00,40.2,26.5,29.92,NW,305,0.0,9.9,58,0.00,,OVC075,0.00,VWS V14.00,2013-03-23 09:10:00,
2013-03-23 05:15:00,39.7,26.6,29.92,NW,305,0.0,9.9,59,0.00,,OVC075,0.00,VWS V14.00,2013-03-23 09:15:00,
2013-03-23 05:20:00,39.6,26.5,29.92,NW,305,0.0,9.9,59,0.00,,OVC075,0.00,VWS V14.00,2013-03-23 09:20:00,
2013-03-23 05:25:00,38.9,25.1,29.92,NW,305,0.0,9.9,57,0.00,,OVC075,0.00,VWS V14.00,2013-03-23 09:25:00,
2013-03-23 05:30:00,38.5,25.0,29.92,NW,305,0.0,9.9,58,0.00,,OVC075,0.00,VWS V14.00,2013-03-23 09:30:00,
2013-03-23 05:35:00,37.6,23.7,29.92,NW,305,0.0,9.9,57,0.00,,OVC075,0.00,VWS V14.00,2013-03-23 09:35:00,
2013-03-23 05:40:00,37.8,24.2,29.93,NW,305,0.0,9.9,58,0.00,,OVC075,0.00,VWS V14.00,2013-03-23 09:40:00,
2013-03-23 05:45:00,34.9,22.1,29.92,NW,305,0.0,9.9,59,0.00,,OVC075,0.00,VWS V14.00,2013-03-23 09:45:00,
2013-03-23 05:50:00,38.8,26.7,29.92,NW,305,0.0,9.9,61,0.00,,OVC075,0.00,VWS V14.00,2013-03-23 09:50:00,
2013-03-23 05:55:00,38.6,26.8,29.92,NW,305,0.0,9.9,62,0.00,,OVC075,0.00,VWS V14.00,2013-03-23 09:55:00,
2013-03-23 06:00:00,38.1,26.6,29.92,NW,305,0.0,9.9,63,0.00,,OVC075,0.00,VWS V14.00,2013-03-23 10:00:00,
2013-03-23 06:05:00,37.1,25.8,29.92,NW,305,0.0,9.9,63,0.00,,OVC075,0.00,VWS V14.00,2013-03-23 10:05:00,
2013-03-23 06:10:00,36.9,25.1,29.92,NW,305,0.0,9.9,62,0.00,,OVC075,0.00,VWS V14.00,2013-03-23 10:10:00,
2013-03-23 06:15:00,36.4,24.7,29.93,NW,305,0.0,9.9,62,0.00,,OVC075,0.00,VWS V14.00,2013-03-23 10:15:00,
2013-03-23 06:20:00,36.7,25.2,29.92,NW,305,0.0,9.9,63,0.00,,OVC075,0.00,VWS V14.00,2013-03-23 10:20:00,
2013-03-23 06:25:00,36.5,25.6,29.92,NW,305,0.0,9.9,64,0.00,,OVC075,0.00,VWS V14.00,2013-03-23 10:25:00,
2013-03-23 06:30:00,36.9,26.9,29.92,NW,305,0.0,9.9,67,0.00,,OVC075,0.00,VWS V14.00,2013-03-23 10:30:00,
2013-03-23 06:35:00,36.7,27.3,29.93,NW,305,0.0,9.9,68,0.00,,OVC075,0.00,VWS V14.00,2013-03-23 10:35:00,
2013-03-23 06:40:00,36.3,26.5,29.93,NW,305,0.0,9.9,67,0.00,,OVC075,0.00,VWS V14.00,2013-03-23 10:40:00,
2013-03-23 06:45:00,36.4,27.5,29.94,NW,305,0.0,9.9,70,0.00,,FEW075,0.00,VWS V14.00,2013-03-23 10:45:00,
2013-03-23 06:50:00,36.7,28.0,29.94,NW,305,0.0,9.9,70,0.00,,FEW075,0.00,VWS V14.00,2013-03-23 10:50:00,
2013-03-23 06:55:00,37.1,28.3,29.94,NW,305,0.0,9.9,70,0.00,,FEW075,0.00,VWS V14.00,2013-03-23 10:55:00,
2013-03-23 07:00:00,36.9,28.1,29.94,NW,305,0.0,9.9,70,0.00,,FEW075,0.00,VWS V14.00,2013-03-23 11:00:00,
2013-03-23 07:05:00,36.8,28.3,29.95,NW,305,0.0,9.9,71,0.00,,FEW075,0.00,VWS V14.00,2013-03-23 11:05:00,
2013-03-23 07:10:00,37.3,29.3,29.95,NW,305,0.0,9.9,73,0.00,,FEW075,0.00,VWS V14.00,2013-03-23 11:10:00,
2013-03-23 07:15:00,37.0,29.0,29.95,NW,305,0.0,9.9,73,0.00,,FEW075,0.00,VWS V14.00,2013-03-23 11:15:00,
2013-03-23 07:20:00,37.5,29.7,29.95,NW,305,0.0,9.9,73,0.00,,FEW075,0.00,VWS V14.00,2013-03-23 11:20:00,
2013-03-23 07:25:00,37.5,30.0,29.95,NW,305,0.0,9.9,74,0.00,,FEW075,0.00,VWS V14.00,2013-03-23 11:25:00,
2013-03-23 07:30:00,36.8,29.5,29.95,NW,305,0.0,9.9,74,0.00,,FEW075,0.00,VWS V14.00,2013-03-23 11:30:00,
2013-03-23 07:35:00,36.6,29.5,29.95,NW,305,0.0,9.9,75,0.00,,FEW075,0.00,VWS V14.00,2013-03-23 11:35:00,
2013-03-23 07:40:00,37.2,30.1,29.95,NW,305,0.0,9.9,75,0.00,,FEW075,0.00,VWS V14.00,2013-03-23 11:40:00,
2013-03-23 07:45:00,37.0,30.0,29.95,NW,305,0.0,9.9,76,0.00,,BKN060,0.00,VWS V14.00,2013-03-23 11:45:00,
2013-03-23 07:50:00,37.5,29.9,29.95,NW,305,0.0,9.9,74,0.00,,BKN060,0.00,VWS V14.00,2013-03-23 11:50:00,
2013-03-23 07:55:00,37.9,30.1,29.95,NW,305,0.0,9.9,73,0.00,,BKN060,0.00,VWS V14.00,2013-03-23 11:55:00,
2013-03-23 08:00:00,37.9,30.4,29.95,NW,305,0.0,9.9,74,0.00,,BKN060,0.00,VWS V14.00,2013-03-23 12:00:00,
2013-03-23 08:05:00,38.0,29.6,29.96,NW,305,0.0,9.9,71,0.00,,BKN060,0.00,VWS V14.00,2013-03-23 12:05:00,
2013-03-23 08:10:00,37.8,29.1,29.95,NW,305,0.0,9.9,71,0.00,,BKN060,0.00,VWS V14.00,2013-03-23 12:10:00,
2013-03-23 08:15:00,38.1,29.2,29.95,NW,305,0.0,9.9,70,0.00,,BKN060,0.00,VWS V14.00,2013-03-23 12:15:00,
2013-03-23 08:20:00,38.2,28.2,29.95,NW,305,0.0,9.9,67,0.00,,BKN060,0.00,VWS V14.00,2013-03-23 12:20:00,
2013-03-23 08:25:00,38.5,28.8,29.96,NW,305,0.0,9.9,68,0.00,,BKN060,0.00,VWS V14.00,2013-03-23 12:25:00,
2013-03-23 08:30:00,38.6,27.1,29.97,NW,305,0.0,9.9,63,0.00,,BKN060,0.00,VWS V14.00,2013-03-23 12:30:00,
2013-03-23 08:35:00,39.0,26.2,29.97,NW,305,0.0,9.9,60,0.00,,BKN060,0.00,VWS V14.00,2013-03-23 12:35:00,
2013-03-23 08:40:00,38.2,24.9,29.97,NW,305,0.0,9.9,58,0.00,,BKN060,0.00,VWS V14.00,2013-03-23 12:40:00,
2013-03-23 08:45:00,37.3,23.9,29.97,NW,305,0.0,9.9,58,0.00,,BKN060,0.00,VWS V14.00,2013-03-23 12:45:00,
2013-03-23 08:50:00,34.8,20.8,29.97,NW,305,0.0,9.9,56,0.00,,BKN060,0.00,VWS V14.00,2013-03-23 12:50:00,
2013-03-23 08:55:00,38.9,24.1,29.97,NW,305,0.0,9.9,55,0.00,,BKN060,0.00,VWS V14.00,2013-03-23 12:55:00,
2013-03-23 09:00:00,39.7,24.2,29.97,NW,305,0.0,9.9,53,0.00,,BKN060,0.00,VWS V14.00,2013-03-23 13:00:00,
2013-03-23 09:05:00,38.9,22.7,29.96,East,97,0.0,9.9,52,0.00,,BKN060,0.00,VWS V14.00,2013-03-23 13:05:00,
2013-03-23 09:10:00,38.9,22.5,29.96,ESE,112,0.0,9.9,51,0.00,,BKN060,0.00,VWS V14.00,2013-03-23 13:10:00,
2013-03-23 09:15:00,38.9,22.6,29.96,ESE,107,0.0,9.9,52,0.00,,BKN060,0.00,VWS V14.00,2013-03-23 13:15:00,
2013-03-23 09:20:00,38.7,22.1,29.96,ENE,66,0.0,9.9,51,0.00,,BKN060,0.00,VWS V14.00,2013-03-23 13:20:00,
2013-03-23 09:25:00,38.1,21.8,29.97,ENE,66,0.0,9.9,52,0.00,,BKN060,0.00,VWS V14.00,2013-03-23 13:25:00,
2013-03-23 09:30:00,33.1,16.8,29.97,ENE,66,0.0,9.9,51,0.00,,BKN060,0.00,VWS V14.00,2013-03-23 13:30:00,
2013-03-23 09:36:00,36.3,19.6,29.98,ENE,66,0.0,9.9,50,0.00,,SCT120,0.00,VWS V14.00,2013-03-23 13:36:00,
2013-03-23 09:41:00,39.5,22.7,29.98,ENE,66,0.0,9.9,51,0.00,,SCT120,0.00,VWS V14.00,2013-03-23 13:41:00,
2013-03-23 09:46:00,39.9,22.9,29.98,ENE,66,0.0,9.9,50,0.00,,OVC060,0.00,VWS V14.00,2013-03-23 13:46:00,
2013-03-23 09:51:00,40.2,23.0,29.97,ENE,66,0.0,9.9,50,0.00,,OVC060,0.00,VWS V14.00,2013-03-23 13:51:00,
2013-03-23 09:56:00,40.4,22.8,29.98,ENE,66,0.0,9.9,49,0.00,,OVC060,0.00,VWS V14.00,2013-03-23 13:56:00,
2013-03-23 10:01:00,40.6,22.7,29.98,ENE,66,0.0,9.9,48,0.00,,OVC060,0.00,VWS V14.00,2013-03-23 14:01:00,
2013-03-23 10:06:00,41.1,23.3,29.98,ENE,66,0.0,9.9,49,0.00,,OVC060,0.00,VWS V14.00,2013-03-23 14:06:00,
2013-03-23 10:11:00,41.4,23.6,29.98,ENE,66,0.0,9.9,49,0.00,,OVC060,0.00,VWS V14.00,2013-03-23 14:11:00,
2013-03-23 10:16:00,41.6,23.8,29.98,ENE,66,0.0,9.9,49,0.00,,OVC060,0.00,VWS V14.00,2013-03-23 14:16:00,
2013-03-23 10:20:00,41.4,23.7,29.98,ENE,66,0.0,9.9,49,0.00,,OVC060,0.00,VWS V14.00,2013-03-23 14:20:00,
2013-03-23 10:26:00,41.4,23.4,29.98,ENE,66,0.0,9.9,48,0.00,,OVC060,0.00,VWS V14.00,2013-03-23 14:26:00,
2013-03-23 10:31:00,41.7,23.6,29.98,ENE,66,0.0,9.9,48,0.00,,OVC060,0.00,VWS V14.00,2013-03-23 14:31:00,
2013-03-23 10:36:00,41.5,23.2,29.98,ENE,68,0.0,9.9,48,0.00,,OVC060,0.00,VWS V14.00,2013-03-23 14:36:00,
2013-03-23 10:41:00,41.6,23.6,29.98,ENE,68,0.0,9.9,48,0.00,,OVC060,0.00,VWS V14.00,2013-03-23 14:41:00,
2013-03-23 10:46:00,41.5,23.2,29.97,East,86,0.0,9.9,48,0.00,,OVC080,0.00,VWS V14.00,2013-03-23 14:46:00,
2013-03-23 10:51:00,41.6,23.4,29.97,East,86,0.0,9.9,48,0.00,,OVC080,0.00,VWS V14.00,2013-03-23 14:51:00,
2013-03-23 10:56:00,41.4,23.4,29.97,East,86,0.0,9.9,48,0.00,,OVC080,0.00,VWS V14.00,2013-03-23 14:56:00,
2013-03-23 11:01:00,41.4,23.6,29.97,East,86,0.0,9.9,49,0.00,,OVC080,0.00,VWS V14.00,2013-03-23 15:01:00,
2013-03-23 11:06:00,41.8,24.1,29.97,East,86,0.0,9.9,49,0.00,,OVC080,0.00,VWS V14.00,2013-03-23 15:06:00,
2013-03-23 11:11:00,41.9,24.4,29.98,East,86,0.0,9.9,50,0.00,,OVC080,0.00,VWS V14.00,2013-03-23 15:11:00,
2013-03-23 11:16:00,41.9,24.1,29.98,East,86,0.0,9.9,49,0.00,,OVC080,0.00,VWS V14.00,2013-03-23 15:16:00,
2013-03-23 11:21:00,41.9,24.1,29.98,East,86,0.0,9.9,49,0.00,,OVC080,0.00,VWS V14.00,2013-03-23 15:21:00,
2013-03-23 11:26:00,42.1,24.5,29.98,East,86,0.0,9.9,49,0.00,,OVC080,0.00,VWS V14.00,2013-03-23 15:26:00,
2013-03-23 11:31:00,42.6,24.6,29.98,East,86,0.0,9.9,49,0.00,,OVC080,0.00,VWS V14.00,2013-03-23 15:31:00,
2013-03-23 11:36:00,44.2,25.5,29.98,East,86,0.0,9.9,48,0.00,,OVC080,0.00,VWS V14.00,2013-03-23 15:36:00,
2013-03-23 11:41:00,44.1,25.4,29.97,East,86,0.0,9.9,47,0.00,,OVC080,0.00,VWS V14.00,2013-03-23 15:41:00,
2013-03-23 11:46:00,44.1,25.4,29.97,East,86,0.0,9.9,48,0.00,,OVC075,0.00,VWS V14.00,2013-03-23 15:46:00,
2013-03-23 11:51:00,44.4,25.1,29.97,South,191,0.0,9.9,46,0.00,,OVC075,0.00,VWS V14.00,2013-03-23 15:51:00,
2013-03-23 11:57:00,44.1,25.3,29.97,South,191,0.0,9.9,47,0.00,,OVC075,0.00,VWS V14.00,2013-03-23 15:57:00,
2013-03-23 12:02:00,43.6,24.4,29.97,South,191,0.0,9.9,46,0.00,,OVC075,0.00,VWS V14.00,2013-03-23 16:02:00,
2013-03-23 12:07:00,43.2,23.8,29.96,South,191,0.0,9.9,46,0.00,,OVC075,0.00,VWS V14.00,2013-03-23 16:07:00,
2013-03-23 12:12:00,43.7,24.1,29.96,South,191,0.0,9.9,46,0.00,,OVC075,0.00,VWS V14.00,2013-03-23 16:12:00,
2013-03-23 12:17:00,42.9,22.9,29.96,South,191,0.0,9.9,45,0.00,,OVC075,0.00,VWS V14.00,2013-03-23 16:17:00,
2013-03-23 12:22:00,42.1,21.6,29.95,South,191,0.0,9.9,44,0.00,,OVC075,0.00,VWS V14.00,2013-03-23 16:22:00,
2013-03-23 12:27:00,43.3,22.8,29.95,South,191,0.0,9.9,44,0.00,,OVC075,0.00,VWS V14.00,2013-03-23 16:27:00,
2013-03-23 12:32:00,44.2,24.2,29.95,South,191,0.0,9.9,45,0.00,,OVC075,0.00,VWS V14.00,2013-03-23 16:32:00,
2013-03-23 12:37:00,43.0,22.9,29.95,South,191,0.0,9.9,44,0.00,,OVC075,0.00,VWS V14.00,2013-03-23 16:37:00,
2013-03-23 12:42:00,45.1,24.5,29.95,South,191,0.0,9.9,44,0.00,,OVC075,0.00,VWS V14.00,2013-03-23 16:42:00,
2013-03-23 12:47:00,45.5,24.7,29.95,South,191,0.0,9.9,44,0.00,,OVC065,0.00,VWS V14.00,2013-03-23 16:47:00,
2013-03-23 12:52:00,45.7,24.8,29.95,South,191,0.0,9.9,44,0.00,,OVC065,0.00,VWS V14.00,2013-03-23 16:52:00,
2013-03-23 12:57:00,45.0,23.4,29.95,South,191,0.0,9.9,42,0.00,,OVC065,0.00,VWS V14.00,2013-03-23 16:57:00,
2013-03-23 13:02:00,45.2,23.5,29.95,South,191,0.0,9.9,42,0.00,,OVC065,0.00,VWS V14.00,2013-03-23 17:02:00,
2013-03-23 13:07:00,45.6,24.4,29.95,SSW,193,0.0,9.9,43,0.00,,OVC065,0.00,VWS V14.00,2013-03-23 17:07:00,
2013-03-23 13:12:00,45.7,24.1,29.95,SSW,193,0.0,9.9,42,0.00,,OVC065,0.00,VWS V14.00,2013-03-23 17:12:00,
2013-03-23 13:17:00,46.0,24.5,29.95,SSW,193,0.0,9.9,43,0.00,,OVC065,0.00,VWS V14.00,2013-03-23 17:17:00,
2013-03-23 13:22:00,45.7,23.5,29.95,SSW,193,0.0,9.9,41,0.00,,OVC065,0.00,VWS V14.00,2013-03-23 17:22:00,
2013-03-23 13:27:00,45.7,23.6,29.94,SSW,193,0.0,9.9,41,0.00,,OVC065,0.00,VWS V14.00,2013-03-23 17:27:00,
2013-03-23 13:32:00,45.6,23.1,29.94,SSW,193,0.0,9.9,41,0.00,,OVC065,0.00,VWS V14.00,2013-03-23 17:32:00,
2013-03-23 13:37:00,46.6,24.1,29.94,SSW,193,0.0,9.9,41,0.00,,OVC065,0.00,VWS V14.00,2013-03-23 17:37:00,
2013-03-23 13:42:00,46.5,23.2,29.94,SE,132,0.0,9.9,40,0.00,,OVC065,0.00,VWS V14.00,2013-03-23 17:42:00,
2013-03-23 13:47:00,47.2,23.8,29.94,SE,132,0.0,9.9,40,0.00,,OVC060,0.00,VWS V14.00,2013-03-23 17:47:00,
2013-03-23 13:52:00,47.5,23.6,29.94,SE,132,0.0,9.9,39,0.00,,OVC060,0.00,VWS V14.00,2013-03-23 17:52:00,
2013-03-23 13:57:00,47.5,23.5,29.94,SE,132,0.0,9.9,38,0.00,,OVC060,0.00,VWS V14.00,2013-03-23 17:57:00,
2013-03-23 14:02:00,47.6,24.3,29.93,SE,132,0.0,9.9,40,0.00,,OVC060,0.00,VWS V14.00,2013-03-23 18:02:00,
2013-03-23 14:07:00,47.8,24.3,29.93,SE,132,0.0,9.9,39,0.00,,OVC060,0.00,VWS V14.00,2013-03-23 18:07:00,
2013-03-23 14:12:00,48.6,25.0,29.93,South,169,0.0,9.9,39,0.00,,OVC060,0.00,VWS V14.00,2013-03-23 18:12:00,
2013-03-23 14:17:00,47.7,23.9,29.92,South,176,0.0,9.9,39,0.00,,OVC060,0.00,VWS V14.00,2013-03-23 18:17:00,
2013-03-23 14:22:00,48.1,24.1,29.92,South,176,0.0,9.9,39,0.00,,OVC060,0.00,VWS V14.00,2013-03-23 18:22:00,
2013-03-23 14:27:00,47.1,23.1,29.92,SE,131,0.0,9.9,38,0.00,,OVC060,0.00,VWS V14.00,2013-03-23 18:27:00,
2013-03-23 14:32:00,48.3,24.3,29.92,West,280,0.0,9.9,39,0.00,,OVC060,0.00,VWS V14.00,2013-03-23 18:32:00,
2013-03-23 14:37:00,48.3,25.1,29.92,West,278,0.0,9.9,40,0.00,,OVC060,0.00,VWS V14.00,2013-03-23 18:37:00,
2013-03-23 14:42:00,48.1,24.8,29.91,West,278,0.0,9.9,40,0.00,,OVC060,0.00,VWS V14.00,2013-03-23 18:42:00,
2013-03-23 14:47:00,47.9,24.8,29.91,West,278,0.0,9.9,40,0.00,,OVC060,0.00,VWS V14.00,2013-03-23 18:47:00,
2013-03-23 14:52:00,46.7,23.6,29.91,West,278,0.0,9.9,40,0.00,,OVC060,0.00,VWS V14.00,2013-03-23 18:52:00,
2013-03-23 14:57:00,45.9,23.0,29.90,NNE,24,4.3,9.9,40,0.00,,OVC060,0.00,VWS V14.00,2013-03-23 18:57:00,
2013-03-23 15:02:00,47.4,23.7,29.90,North,11,0.0,9.9,39,0.00,,OVC060,0.00,VWS V14.00,2013-03-23 19:02:00,
2013-03-23 15:07:00,49.8,26.1,29.90,North,11,0.0,9.9,39,0.00,,OVC060,0.00,VWS V14.00,2013-03-23 19:07:00,
2013-03-23 15:12:00,47.0,23.4,29.89,NW,325,0.0,9.9,39,0.00,,OVC060,0.00,VWS V14.00,2013-03-23 19:12:00,
2013-03-23 15:17:00,49.4,26.2,29.89,WSW,252,0.0,9.9,40,0.00,,OVC060,0.00,VWS V14.00,2013-03-23 19:17:00,
2013-03-23 15:22:00,49.3,26.3,29.89,SW,236,0.0,9.9,40,0.00,,OVC060,0.00,VWS V14.00,2013-03-23 19:22:00,
2013-03-23 15:27:00,49.1,26.5,29.89,SW,236,0.0,9.9,41,0.00,,OVC060,0.00,VWS V14.00,2013-03-23 19:27:00,
2013-03-23 15:32:00,48.0,24.7,29.89,SSW,212,0.0,9.9,40,0.00,,OVC060,0.00,VWS V14.00,2013-03-23 19:32:00,
2013-03-23 15:37:00,47.8,25.4,29.89,ENE,68,0.0,9.9,41,0.00,,OVC060,0.00,VWS V14.00,2013-03-23 19:37:00,
2013-03-23 15:42:00,49.3,25.9,29.89,SSW,194,4.2,9.9,40,0.00,,OVC060,0.00,VWS V14.00,2013-03-23 19:42:00,
2013-03-23 15:47:00,49.4,26.1,29.89,ESE,118,0.0,9.9,40,0.00,,OVC065,0.00,VWS V14.00,2013-03-23 19:47:00,
2013-03-23 15:52:00,49.5,26.6,29.89,ESE,118,0.0,9.9,41,0.00,,OVC065,0.00,VWS V14.00,2013-03-23 19:52:00,
2013-03-23 15:58:00,49.5,26.6,29.89,South,191,0.0,9.9,41,0.00,,OVC065,0.00,VWS V14.00,2013-03-23 19:58:00,
2013-03-23 16:03:00,50.2,27.3,29.89,WNW,292,0.0,9.9,41,0.00,,OVC065,0.00,VWS V14.00,2013-03-23 20:03:00,
2013-03-23 16:08:00,48.9,27.0,29.88,West,267,0.0,9.9,42,0.00,,OVC065,0.00,VWS V14.00,2013-03-23 20:08:00,
2013-03-23 16:13:00,48.9,26.8,29.88,West,267,0.0,9.9,42,0.00,,OVC065,0.00,VWS V14.00,2013-03-23 20:13:00,
2013-03-23 16:18:00,49.0,26.9,29.87,West,267,0.0,9.9,42,0.00,,OVC065,0.00,VWS V14.00,2013-03-23 20:18:00,
2013-03-23 16:22:00,49.1,26.7,29.87,West,267,0.0,9.9,41,0.00,,OVC065,0.00,VWS V14.00,2013-03-23 20:22:00,
2013-03-23 16:28:00,49.1,26.3,29.88,SSW,195,4.4,9.9,41,0.00,,OVC065,0.00,VWS V14.00,2013-03-23 20:28:00,
2013-03-23 16:33:00,50.3,27.5,29.88,SSE,156,0.0,9.9,41,0.00,,OVC065,0.00,VWS V14.00,2013-03-23 20:33:00,
2013-03-23 16:38:00,50.8,27.6,29.88,SSE,156,0.0,9.9,40,0.00,,OVC065,0.00,VWS V14.00,2013-03-23 20:38:00,
2013-03-23 16:43:00,51.0,28.0,29.88,SSE,156,0.0,9.9,41,0.00,,OVC065,0.00,VWS V14.00,2013-03-23 20:43:00,
2013-03-23 16:48:00,50.9,28.1,29.88,SSE,156,0.0,9.9,41,0.00,,BKN060,0.00,VWS V14.00,2013-03-23 20:48:00,
2013-03-23 16:53:00,51.0,28.5,29.88,North,11,0.0,9.9,42,0.00,,BKN060,0.00,VWS V14.00,2013-03-23 20:53:00,
2013-03-23 16:58:00,50.8,28.7,29.88,NNE,21,0.0,9.9,42,0.00,,BKN060,0.00,VWS V14.00,2013-03-23 20:58:00,
2013-03-23 17:03:00,50.9,29.0,29.87,North,10,3.0,9.9,43,0.00,,BKN060,0.00,VWS V14.00,2013-03-23 21:03:00,
2013-03-23 17:08:00,51.0,29.0,29.86,North,10,0.0,9.9,42,0.00,,BKN060,0.00,VWS V14.00,2013-03-23 21:08:00,
2013-03-23 17:13:00,51.0,28.5,29.86,NNE,21,0.0,9.9,42,0.00,,BKN060,0.00,VWS V14.00,2013-03-23 21:13:00,
2013-03-23 17:18:00,52.0,29.5,29.86,NNW,329,5.7,9.9,42,0.00,,BKN060,0.00,VWS V14.00,2013-03-23 21:18:00,
2013-03-23 17:23:00,51.4,28.3,29.86,North,354,7.1,9.9,41,0.00,,BKN060,0.00,VWS V14.00,2013-03-23 21:23:00,
2013-03-23 17:28:00,51.7,29.3,29.86,West,281,0.0,9.9,42,0.00,,BKN060,0.00,VWS V14.00,2013-03-23 21:28:00,
2013-03-23 17:33:00,51.1,29.2,29.86,NNW,329,0.0,9.9,43,0.00,,BKN060,0.00,VWS V14.00,2013-03-23 21:33:00,
2013-03-23 17:38:00,51.4,29.4,29.86,NNE,21,0.0,9.9,43,0.00,,BKN060,0.00,VWS V14.00,2013-03-23 21:38:00,
2013-03-23 17:43:00,51.5,29.5,29.86,NNE,21,0.0,9.9,42,0.00,,BKN060,0.00,VWS V14.00,2013-03-23 21:43:00,
2013-03-23 17:48:00,52.2,29.6,29.86,NNW,332,3.1,9.9,42,0.00,,SCT060,0.00,VWS V14.00,2013-03-23 21:48:00,
2013-03-23 17:53:00,51.8,29.6,29.86,NNW,332,0.0,9.9,42,0.00,,SCT060,0.00,VWS V14.00,2013-03-23 21:53:00,
2013-03-23 17:58:00,51.7,29.5,29.85,NW,326,2.8,9.9,42,0.00,,SCT060,0.00,VWS V14.00,2013-03-23 21:58:00,
2013-03-23 18:03:00,52.1,29.7,29.85,NNE,21,0.0,9.9,42,0.00,,SCT060,0.00,VWS V14.00,2013-03-23 22:03:00,
2013-03-23 18:08:00,52.5,30.3,29.85,NW,315,0.0,9.9,42,0.00,,SCT060,0.00,VWS V14.00,2013-03-23 22:08:00,
2013-03-23 18:13:00,51.8,30.0,29.86,NW,315,0.0,9.9,43,0.00,,SCT060,0.00,VWS V14.00,2013-03-23 22:13:00,
2013-03-23 18:18:00,52.1,29.9,29.85,NW,315,0.0,9.9,42,0.00,,SCT060,0.00,VWS V14.00,2013-03-23 22:18:00,
2013-03-23 18:23:00,51.8,29.9,29.85,NW,315,0.0,9.9,43,0.00,,SCT060,0.00,VWS V14.00,2013-03-23 22:23:00,
2013-03-23 18:28:00,51.7,29.8,29.84,NW,315,0.0,9.9,43,0.00,,SCT060,0.00,VWS V14.00,2013-03-23 22:28:00,
2013-03-23 18:33:00,51.0,29.5,29.84,WNW,294,0.0,9.9,43,0.00,,SCT060,0.00,VWS V14.00,2013-03-23 22:33:00,
2013-03-23 18:38:00,51.5,29.9,29.84,WNW,294,0.0,9.9,43,0.00,,SCT060,0.00,VWS V14.00,2013-03-23 22:38:00,
2013-03-23 18:43:00,51.4,29.9,29.84,WNW,294,0.0,9.9,43,0.00,,SCT060,0.00,VWS V14.00,2013-03-23 22:43:00,
2013-03-23 18:48:00,52.2,30.6,29.84,WNW,294,0.0,9.9,43,0.00,,FEW060,0.00,VWS V14.00,2013-03-23 22:48:00,
2013-03-23 18:53:00,52.4,30.8,29.84,WNW,294,0.0,9.9,43,0.00,,FEW060,0.00,VWS V14.00,2013-03-23 22:53:00,
2013-03-23 18:58:00,51.7,30.3,29.84,WNW,294,0.0,9.9,44,0.00,,FEW060,0.00,VWS V14.00,2013-03-23 22:58:00,
2013-03-23 19:03:00,51.7,30.5,29.85,WNW,294,0.0,9.9,44,0.00,,FEW060,0.00,VWS V14.00,2013-03-23 23:03:00,
2013-03-23 19:08:00,51.9,31.0,29.84,WNW,294,0.0,9.9,44,0.00,,FEW060,0.00,VWS V14.00,2013-03-23 23:08:00,
2013-03-23 19:13:00,51.0,30.4,29.85,WNW,294,0.0,9.9,45,0.00,,FEW060,0.00,VWS V14.00,2013-03-23 23:13:00,
2013-03-23 19:18:00,50.6,30.3,29.85,WNW,294,0.0,9.9,46,0.00,,FEW060,0.00,VWS V14.00,2013-03-23 23:18:00,
2013-03-23 19:23:00,50.8,30.7,29.84,WNW,294,0.0,9.9,46,0.00,,FEW060,0.00,VWS V14.00,2013-03-23 23:23:00,
2013-03-23 19:28:00,50.0,30.3,29.85,WNW,294,0.0,9.9,46,0.00,,FEW060,0.00,VWS V14.00,2013-03-23 23:28:00,
2013-03-23 19:33:00,51.1,31.4,29.86,WNW,294,0.0,9.9,47,0.00,,FEW060,0.00,VWS V14.00,2013-03-23 23:33:00,
2013-03-23 19:38:00,50.2,31.1,29.86,WNW,294,0.0,9.9,48,0.00,,FEW060,0.00,VWS V14.00,2013-03-23 23:38:00,
2013-03-23 19:43:00,49.8,31.0,29.86,WNW,294,0.0,9.9,48,0.00,,FEW060,0.00,VWS V14.00,2013-03-23 23:43:00,
2013-03-23 19:48:00,48.8,30.2,29.86,WNW,294,0.0,9.9,48,0.00,,FEW060,0.00,VWS V14.00,2013-03-23 23:48:00,
2013-03-23 19:53:00,48.8,30.5,29.87,WNW,294,0.0,9.9,49,0.00,,FEW060,0.00,VWS V14.00,2013-03-23 23:53:00,
2013-03-23 19:58:00,48.7,30.6,29.87,WNW,294,0.0,9.9,49,0.00,,FEW060,0.00,VWS V14.00,2013-03-23 23:58:00,
2013-03-23 20:03:00,49.5,31.5,29.87,WNW,294,0.0,9.9,50,0.00,,FEW060,0.00,VWS V14.00,2013-03-24 00:03:00,
2013-03-23 20:08:00,49.0,31.3,29.87,WNW,294,0.0,9.9,50,0.00,,FEW060,0.00,VWS V14.00,2013-03-24 00:08:00,
2013-03-23 20:13:00,46.7,29.5,29.87,WNW,294,0.0,9.9,51,0.00,,FEW060,0.00,VWS V14.00,2013-03-24 00:13:00,
2013-03-23 20:18:00,49.1,32.1,29.87,WNW,294,0.0,9.9,52,0.00,,CLR,0.00,VWS V14.00,2013-03-24 00:18:00,
2013-03-23 20:23:00,49.3,32.4,29.87,WNW,294,0.0,9.9,52,0.00,,CLR,0.00,VWS V14.00,2013-03-24 00:23:00,
2013-03-23 20:28:00,49.4,32.8,29.87,WNW,294,0.0,9.9,52,0.00,,CLR,0.00,VWS V14.00,2013-03-24 00:28:00,
2013-03-23 20:33:00,49.2,32.7,29.87,WNW,294,0.0,9.9,53,0.00,,CLR,0.00,VWS V14.00,2013-03-24 00:33:00,
2013-03-23 20:38:00,49.1,33.0,29.87,WNW,294,0.0,9.9,54,0.00,,CLR,0.00,VWS V14.00,2013-03-24 00:38:00,
2013-03-23 20:43:00,49.0,32.8,29.87,WNW,294,0.0,9.9,53,0.00,,CLR,0.00,VWS V14.00,2013-03-24 00:43:00,
2013-03-23 20:48:00,49.1,33.0,29.87,WNW,294,0.0,9.9,54,0.00,,CLR,0.00,VWS V14.00,2013-03-24 00:48:00,
2013-03-23 20:53:00,49.0,33.4,29.87,WNW,294,0.0,9.9,55,0.00,,CLR,0.00,VWS V14.00,2013-03-24 00:53:00,
2013-03-23 20:58:00,48.9,33.7,29.88,WNW,294,0.0,9.9,56,0.00,,CLR,0.00,VWS V14.00,2013-03-24 00:58:00,
2013-03-23 21:03:00,48.6,33.9,29.87,WNW,294,0.0,9.9,57,0.00,,CLR,0.00,VWS V14.00,2013-03-24 01:03:00,
2013-03-23 21:08:00,48.4,34.1,29.87,WNW,294,0.0,9.9,58,0.00,,CLR,0.00,VWS V14.00,2013-03-24 01:08:00,
2013-03-23 21:13:00,47.8,33.8,29.88,WNW,294,0.0,9.9,58,0.00,,CLR,0.00,VWS V14.00,2013-03-24 01:13:00,
2013-03-23 21:18:00,47.8,34.2,29.89,WNW,294,0.0,9.9,59,0.00,,CLR,0.00,VWS V14.00,2013-03-24 01:18:00,
2013-03-23 21:23:00,47.4,34.1,29.89,WNW,294,0.0,9.9,60,0.00,,CLR,0.00,VWS V14.00,2013-03-24 01:23:00,
2013-03-23 21:28:00,47.6,34.4,29.89,WNW,294,0.0,9.9,60,0.00,,CLR,0.00,VWS V14.00,2013-03-24 01:28:00,
2013-03-23 21:33:00,47.5,34.1,29.89,WNW,294,0.0,9.9,59,0.00,,CLR,0.00,VWS V14.00,2013-03-24 01:33:00,
2013-03-23 21:38:00,47.6,34.3,29.89,WNW,294,0.0,9.9,60,0.00,,CLR,0.00,VWS V14.00,2013-03-24 01:38:00,
2013-03-23 21:43:00,47.4,34.3,29.89,WNW,294,0.0,9.9,60,0.00,,CLR,0.00,VWS V14.00,2013-03-24 01:43:00,
2013-03-23 21:48:00,47.2,33.9,29.89,WNW,294,0.0,9.9,60,0.00,,CLR,0.00,VWS V14.00,2013-03-24 01:48:00,
2013-03-23 21:53:00,47.4,34.1,29.90,WNW,294,0.0,9.9,60,0.00,,CLR,0.00,VWS V14.00,2013-03-24 01:53:00,
2013-03-23 21:58:00,47.2,34.2,29.90,WNW,294,0.0,9.9,60,0.00,,CLR,0.00,VWS V14.00,2013-03-24 01:58:00,
2013-03-23 22:03:00,47.0,34.5,29.89,WNW,294,0.0,9.9,62,0.00,,CLR,0.00,VWS V14.00,2013-03-24 02:03:00,
2013-03-23 22:08:00,46.8,34.3,29.89,WNW,294,0.0,9.9,62,0.00,,CLR,0.00,VWS V14.00,2013-03-24 02:08:00,
2013-03-23 22:13:00,46.9,35.1,29.89,WNW,294,0.0,9.9,63,0.00,,CLR,0.00,VWS V14.00,2013-03-24 02:13:00,
2013-03-23 22:18:00,46.6,35.2,29.89,WNW,294,0.0,9.9,64,0.00,,CLR,0.00,VWS V14.00,2013-03-24 02:18:00,
2013-03-23 22:23:00,46.2,35.2,29.89,WNW,294,0.0,9.9,65,0.00,,CLR,0.00,VWS V14.00,2013-03-24 02:23:00,
2013-03-23 22:28:00,46.0,35.2,29.89,WNW,294,0.0,9.9,66,0.00,,CLR,0.00,VWS V14.00,2013-03-24 02:28:00,
2013-03-23 22:33:00,46.1,35.4,29.89,WNW,294,0.0,9.9,66,0.00,,CLR,0.00,VWS V14.00,2013-03-24 02:33:00,
2013-03-23 22:38:00,45.8,35.6,29.89,WNW,294,0.0,9.9,67,0.00,,CLR,0.00,VWS V14.00,2013-03-24 02:38:00,
2013-03-23 22:43:00,45.7,35.3,29.88,WNW,294,0.0,9.9,67,0.00,,CLR,0.00,VWS V14.00,2013-03-24 02:43:00,
2013-03-23 22:48:00,45.6,35.1,29.88,WNW,294,0.0,9.9,66,0.00,,CLR,0.00,VWS V14.00,2013-03-24 02:48:00,
2013-03-23 22:53:00,45.7,35.4,29.88,WNW,294,0.0,9.9,67,0.00,,CLR,0.00,VWS V14.00,2013-03-24 02:53:00,
2013-03-23 22:58:00,45.5,35.2,29.87,WNW,294,0.0,9.9,67,0.00,,CLR,0.00,VWS V14.00,2013-03-24 02:58:00,
2013-03-23 22:59:00,44.5,35.1,29.83,WNW,294,0.0,9.9,69,0.00,,CLR,0.00,VWS V14.00,2013-03-24 02:59:00,
2013-03-23 23:03:00,45.4,35.0,29.87,WNW,294,0.0,9.9,67,0.00,,CLR,0.00,VWS V14.00,2013-03-24 03:03:00,
2013-03-23 23:08:00,45.3,34.8,29.87,WNW,294,0.0,9.9,67,0.00,,CLR,0.00,VWS V14.00,2013-03-24 03:08:00,
2013-03-23 23:13:00,45.3,34.5,29.87,WNW,294,0.0,9.9,66,0.00,,CLR,0.00,VWS V14.00,2013-03-24 03:13:00,
2013-03-23 23:18:00,45.0,34.3,29.87,WNW,294,0.0,9.9,66,0.00,,CLR,0.00,VWS V14.00,2013-03-24 03:18:00,
2013-03-23 23:23:00,45.0,34.5,29.86,WNW,294,0.0,9.9,66,0.00,,CLR,0.00,VWS V14.00,2013-03-24 03:23:00,
2013-03-23 23:28:00,44.8,34.6,29.86,WNW,294,0.0,9.9,67,0.00,,CLR,0.00,VWS V14.00,2013-03-24 03:28:00,
2013-03-23 23:33:00,44.6,34.2,29.86,WNW,294,0.0,9.9,67,0.00,,CLR,0.00,VWS V14.00,2013-03-24 03:33:00,
2013-03-23 23:38:00,44.4,34.1,29.86,WNW,294,0.0,9.9,67,0.00,,CLR,0.00,VWS V14.00,2013-03-24 03:38:00,
2013-03-23 23:43:00,44.5,34.3,29.85,WNW,294,0.0,9.9,67,0.00,,CLR,0.00,VWS V14.00,2013-03-24 03:43:00,
2013-03-23 23:48:00,44.6,34.8,29.85,WNW,294,0.0,9.9,68,0.00,,CLR,0.00,VWS V14.00,2013-03-24 03:48:00,
2013-03-23 23:53:00,44.4,34.8,29.85,WNW,294,0.0,9.9,69,0.00,,CLR,0.00,VWS V14.00,2013-03-24 03:53:00,
2013-03-23 23:59:00,44.4,34.9,29.83,WNW,294,0.0,9.9,69,0.00,,CLR,0.00,VWS V14.00,2013-03-24 03:59:00,